Location: Châteauvieux
(47.2310°N, 1.3828°E)
Time: 00:57:42
(UTC+00:00)

Cosmos 841 Rocket - Pass Details

Date: 15 May 2026
Orbit: 742 x 767 km, 74.0° (Epoch: 9 June)

Event Time Altitude Azimuth Distance (km) Brightness Sun altitude
Exits shadow 23:27:22 47° 231° (SW) 1,006 3.8 -23.5°
Maximum altitude 23:28:46 68° 294° (WNW) 823 3.6 -23.5°
Drops below altitude 10° 23:34:00 10° 18° (NNE) 2,312 6.9 -23.6°
Sets 23:36:25 0° 21° (NNE) 3,244 7.8 -23.6°
